Home   Weather   May Pen   Past weeks

Flag for Jamaica Past Weather in May Pen, Jamaica — Yesterday and Last 2 Weeks

Now
79 °F

Passing clouds.


Feels Like: 81 °F
Forecast: 71 / 89 °F
Wind: 10 mph from North

Location: Kingston / Norman Manley

Current Time: Feb 28, 2017 at 12:50:19 am

Latest Report: Feb 28, 2017 at 12:00 am


Visibility: N/A

Pressure: 30.07 "Hg

Humidity: 70%

Dew Point: 68 °F

Location of May PenLocation

Past Weather in May Pen — Graph

°F

May Pen Temperature Yesterday

Maximum temperature yesterday: 86 °F (at 5:00 pm)
Minimum temperature yesterday: 73 °F (at 1:00 pm)
Average temperature yesterday: 80 °F

High & Low Weather Summary for the Past Weeks

 TemperatureHumidityPressure
High86 °F (Feb 14, 1:00 pm)100% (Feb 23, 1:00 pm)30.09 "Hg (Feb 23, 1:00 pm)
Low72 °F (Feb 25, 7:00 am)51% (Feb 17, 7:00 pm)29.77 "Hg (Feb 22, 3:00 pm)
Average79 °F71%29.95 "Hg
* Reported Feb 12 11:00 pm — Feb 27 11:00 pm, May Pen, Weather by CustomWeather, © 2017

Note: Actual official high and low records may vary slightly from our data, if they occured in-between our weather recording intervals... More about our weather records

Advertising

May Pen Weather History for the Previous 24 Hours

Scroll right to see more
 ConditionsComfort  
Time TempWeatherWind HumidityBarometerVisibility
11:00 pm
Mon, Feb 27
79 °FPassing clouds.8 mph74%30.07 "HgN/A
10:00 pm79 °FPassing clouds.7 mph74%30.07 "HgN/A
9:00 pm79 °FPassing clouds.8 mph74%30.07 "HgN/A
8:00 pm81 °FPassing clouds.7 mph70%30.04 "HgN/A
7:00 pm82 °FPassing clouds.12 mph66%30.04 "HgN/A
6:00 pm82 °FPassing clouds.17 mph70%30.01 "HgN/A
5:00 pm86 °FScattered clouds.7 mph59%30.01 "HgN/A
4:00 pm84 °FPartly sunny.7 mph62%30.01 "HgN/A
3:00 pm81 °FPartly sunny.12 mph70%30.01 "HgN/A
2:00 pm81 °FLight rain. Partly sunny.20 mph70%30.04 "HgN/A
1:00 pm73 °FScattered showers. Scattered clouds.31 mph74%30.04 "HgN/A
12:13 pm82 °FScattered showers. Partly sunny.28 mph70%30.07 "HgN/A
12:00 pm82 °FSprinkles. Partly sunny.8 mph66%30.07 "HgN/A
11:00 am84 °FPassing clouds.7 mph58%30.07 "HgN/A
10:00 am82 °FPassing clouds.2 mph66%30.09 "HgN/A
9:00 am81 °FPassing clouds.6 mph70%30.07 "HgN/A
8:00 am79 °FPassing clouds.7 mph74%30.04 "HgN/A
7:00 am77 °FScattered clouds.9 mph74%30.04 "HgN/A
6:00 am77 °FPassing clouds.10 mph74%30.01 "HgN/A
5:00 am77 °FPassing clouds.7 mph74%30.01 "HgN/A
4:00 am77 °FPassing clouds.3 mph74%29.98 "HgN/A
3:00 am77 °FPassing clouds.5 mph74%29.98 "HgN/A
2:00 am77 °FPassing clouds.5 mph74%29.98 "HgN/A
1:00 am79 °FPassing clouds.7 mph74%30.01 "HgN/A
12:00 am79 °FPassing clouds.10 mph74%30.01 "HgN/A
Weather by CustomWeather, © 2017

See weather overviewHow to use our weather pages